FENGYUN 1C DEB

Satellite information

Favourite Embed

Satellite Type and Status

DEBRISIN ORBIT

Key statistics

Satellite FENGYUN 1C DEB at a glance.

Uptime

9671

Days in orbit

Revolutions

≈ 14.1

Per day

Orbit

SSO

Sun Synchronous Orbit

Inclination

98.6

Latest

Satellite identification and parameters

Extended collection of information and parameters for FENGYUN 1C DEB.

Object identification

Identified? True

Debris? True

Object name: FENGYUN 1C DEB

International designator: 1999-025BAE

Object number (NORAD): 30940

Object ID (CCSDS): 30940

Country: PEOPLES REPUBLIC OF CHINA (PRC)

Current information (Y/N): Y

RCS size: SMALL

Orbital parameters

Period: 102.258 minutes

Inclination: 98.6238 deg

SMA: 7243.669 km

Apoapsis: 895.748 km

Periapsis: 835.32 km

RAAN: 302.3812 deg

Eccentricy: 0.0041711

Argument of periapsis: 133.6922 deg

Mean anomaly: 256.8058 deg

Mean motion: 14.08201636 rev/day

Mean motion (dot): 0.00000816 rev/day2

B* drag term: 0.00049819 1/REarth

Two-line elements (TLE)

Creation date: Oct. 27, 2025, 6:46 a.m.

Reference frame: TEME

Reference center: EARTH

Epoch: Oct. 26, 2025, 11:12 p.m. UTC

TLE line 0: 0 FENGYUN 1C DEB

TLE line 1: 1 30940U 99025BAE 25299.96733117 .00000816 00000-0 49819-3 0 9994

TLE line 2: 2 30940 98.6238 302.3812 0041711 133.6922 256.8058 14.08201636954747

Live tracking on map

Real-time ground track for satellite FENGYUN 1C DEB.

In-orbit conjunctions

A list of the most updated potential collisions computed for object FENGYUN 1C DEB.

Target Orbit TCA Probability of collision Miss distance Type
METEOR 2-17 DEB LEO 2025-03-04 19:18:34 0.0001018093 311.0 (m) DEBRIS
COSMOS 2237 LEO 2025-01-20 10:37:46 0.0003701132 354.0 (m) PAYLOAD

Associated space launch

Chinese polar orbiting meteorological satellite

FENGYUN 1C DEB was lifted into orbit during the mission ‘Long March 4B | Feng Yun 1C’, on board a Long March 4B space rocket.

The launch took place on May 10, 1999, 1:33 a.m. from Launch Complex 7.

For more information about the launch, click the button.

Launch to space Long March 4B | Feng Yun 1C
Long March 4B | Feng Yun 1C

Agency: N/A

Status: Launch Successful

Launch date: May 10, 1999, 1:33 a.m. UTC

Rocket: Long March 4B

Launch pad: Launch Complex 7

Location: Taiyuan Satellite Launch Center, People's Republic of China

...

Latest news about this satellite

There are no fresh news available about this satellite. Check back as we update our databases every day.


Newsletter sign-up

Weekly statistics, charts and insights to help you stay on top of the space industry.